UAL154 PHNL-PKMJ

Flight info

Callsign UAL154
Flight time 4h 49m
Altitude 34000
Route OPIHI3 CHOKO R584 MAZZA/N0463F360 10N177E EFAHU
Aircraft B38M/M-SDE1FGHILORVWXY/HB1

Departure

Time 2026-05-03 21:39
Airport Daniel K. Inouye International Airport (PHNL)

Arrival

Time 2026-05-04 02:29
Airport Marshall Islands International Airport (PKMJ)
Time Latitude Longitude Altitude Speed Heading
2026-05-03 21:01 21.33128 -157.92123 26 ft 0 kts
2026-05-03 21:24 21.33114 -157.92125 26 ft 4 kts
2026-05-03 21:24 21.33093 -157.92129 26 ft 4 kts
2026-05-03 21:24 21.33067 -157.92133 26 ft 4 kts
2026-05-03 21:25 21.33040 -157.92138 26 ft 4 kts
2026-05-03 21:25 21.33018 -157.92142 26 ft 3 kts
2026-05-03 21:25 21.32992 -157.92146 26 ft 4 kts
2026-05-03 21:25 21.32965 -157.92151 26 ft 4 kts
2026-05-03 21:26 21.32948 -157.92154 26 ft 4 kts
2026-05-03 21:26 21.32921 -157.92159 26 ft 4 kts
2026-05-03 21:26 21.32894 -157.92163 26 ft 4 kts
2026-05-03 21:26 21.32867 -157.92168 26 ft 4 kts
2026-05-03 21:27 21.32841 -157.92172 26 ft 4 kts
2026-05-03 21:27 21.32815 -157.92171 27 ft 4 kts 351°
2026-05-03 21:27 21.32789 -157.92163 27 ft 4 kts 328°
2026-05-03 21:27 21.32773 -157.92144 26 ft 4 kts 280°
2026-05-03 21:28 21.32773 -157.92117 26 ft 4 kts 270°
2026-05-03 21:28 21.32773 -157.92106 26 ft 2 kts 270°
2026-05-03 21:30 21.32773 -157.92115 26 ft 2 kts 270°
2026-05-03 21:31 21.32773 -157.92137 26 ft 4 kts 271°
2026-05-03 21:31 21.32773 -157.92172 27 ft 6 kts 270°
2026-05-03 21:31 21.32773 -157.92238 27 ft 12 kts 269°
2026-05-03 21:31 21.32774 -157.92351 27 ft 19 kts 271°
2026-05-03 21:32 21.32776 -157.92515 27 ft 25 kts 270°
2026-05-03 21:32 21.32771 -157.92706 27 ft 28 kts 264°
2026-05-03 21:32 21.32741 -157.92923 27 ft 29 kts 270°
2026-05-03 21:32 21.32745 -157.93139 27 ft 29 kts 264°
2026-05-03 21:33 21.32743 -157.93358 27 ft 30 kts 270°
2026-05-03 21:33 21.32739 -157.93582 27 ft 31 kts 269°
2026-05-03 21:33 21.32739 -157.93814 27 ft 32 kts 269°
2026-05-03 21:33 21.32733 -157.94016 27 ft 17 kts 258°
2026-05-03 21:34 21.32661 -157.94109 27 ft 18 kts 209°
2026-05-03 21:34 21.32549 -157.94176 27 ft 19 kts 209°
2026-05-03 21:34 21.32429 -157.94245 27 ft 20 kts 207°
2026-05-03 21:34 21.32303 -157.94320 27 ft 21 kts 209°
2026-05-03 21:35 21.32174 -157.94400 27 ft 22 kts 210°
2026-05-03 21:35 21.32035 -157.94480 27 ft 23 kts 208°
2026-05-03 21:35 21.31892 -157.94569 27 ft 24 kts 210°
2026-05-03 21:35 21.31745 -157.94648 27 ft 23 kts 198°
2026-05-03 21:36 21.31586 -157.94650 27 ft 24 kts 172°
2026-05-03 21:36 21.31420 -157.94628 27 ft 24 kts 172°
2026-05-03 21:36 21.31249 -157.94605 27 ft 25 kts 174°
2026-05-03 21:36 21.31073 -157.94586 27 ft 22 kts 174°
2026-05-03 21:37 21.30927 -157.94574 27 ft 21 kts 179°
2026-05-03 21:37 21.30817 -157.94571 27 ft 12 kts 179°
2026-05-03 21:37 21.30730 -157.94569 26 ft 14 kts 173°
2026-05-03 21:37 21.30681 -157.94512 28 ft 10 kts 91°
2026-05-03 21:38 21.30681 -157.94490 29 ft 0 kts 90°
2026-05-03 21:38 21.30682 -157.94393 31 ft 45 kts 90°
2026-05-03 21:38 21.30684 -157.93770 29 ft 120 kts 90°
2026-05-03 21:39 21.30686 -157.92646 94 ft 174 kts 89°
2026-05-03 21:39 21.30697 -157.91283 669 ft 186 kts 90°
2026-05-03 21:39 21.30561 -157.89860 1552 ft 195 kts 99°
2026-05-03 21:39 21.30216 -157.88446 2376 ft 198 kts 107°
2026-05-03 21:40 21.29697 -157.87077 3194 ft 197 kts 110°
2026-05-03 21:40 21.29358 -157.85593 3681 ft 216 kts 102°
2026-05-03 21:40 21.28596 -157.84088 4005 ft 245 kts 135°
2026-05-03 21:40 21.27129 -157.83251 5057 ft 244 kts 165°
2026-05-03 21:41 21.25377 -157.83239 5637 ft 266 kts 193°
2026-05-03 21:41 21.23676 -157.84163 6159 ft 286 kts 221°
2026-05-03 21:41 21.22401 -157.85785 7092 ft 285 kts 234°
2026-05-03 21:41 21.21259 -157.87513 7854 ft 292 kts 234°
2026-05-03 21:42 21.20085 -157.89299 8669 ft 295 kts 234°
2026-05-03 21:42 21.18922 -157.91126 9463 ft 299 kts 240°
2026-05-03 21:42 21.18044 -157.93152 10266 ft 302 kts 245°
2026-05-03 21:42 21.16829 -157.95046 10679 ft 319 kts 223°
2026-05-03 21:43 21.15010 -157.96488 11133 ft 332 kts 214°
2026-05-03 21:43 21.13069 -157.97900 11686 ft 341 kts 214°
2026-05-03 21:43 21.11091 -157.99315 12454 ft 343 kts 214°
2026-05-03 21:43 21.09109 -158.00747 13113 ft 347 kts 218°
2026-05-03 21:44 21.07418 -158.02587 13804 ft 349 kts 236°
2026-05-03 21:44 21.06334 -158.04906 14484 ft 351 kts 254°
2026-05-03 21:44 21.05991 -158.07489 15163 ft 353 kts 268°
2026-05-03 21:44 21.05840 -158.10129 15777 ft 358 kts 266°
2026-05-03 21:45 21.05627 -158.12794 16411 ft 361 kts 265°
2026-05-03 21:45 21.05390 -158.15478 17021 ft 364 kts 265°
2026-05-03 21:45 21.05151 -158.18187 17609 ft 367 kts 265°
2026-05-03 21:45 21.04910 -158.20918 18177 ft 370 kts 265°
2026-05-03 21:46 21.04667 -158.23676 18717 ft 373 kts 265°
2026-05-03 21:46 21.04422 -158.26454 19233 ft 377 kts 265°
2026-05-03 21:46 21.04175 -158.29249 19730 ft 380 kts 265°
2026-05-03 21:46 21.03930 -158.32007 20214 ft 383 kts 265°
2026-05-03 21:47 21.03676 -158.34863 20691 ft 387 kts 265°
2026-05-03 21:47 21.03423 -158.37702 21146 ft 390 kts 265°
2026-05-03 21:47 21.03161 -158.40643 21635 ft 393 kts 265°
2026-05-03 21:47 21.02900 -158.43570 22073 ft 397 kts 265°
2026-05-03 21:48 21.02639 -158.46483 22507 ft 400 kts 265°
2026-05-03 21:48 21.02372 -158.49453 22929 ft 403 kts 265°
2026-05-03 21:48 21.02103 -158.52449 23340 ft 406 kts 265°
2026-05-03 21:48 21.01832 -158.55454 23745 ft 409 kts 265°
2026-05-03 21:49 21.01558 -158.58492 24146 ft 412 kts 265°
2026-05-03 21:49 21.01281 -158.61547 24544 ft 414 kts 265°
2026-05-03 21:49 21.01002 -158.64623 24955 ft 416 kts 266°
2026-05-03 21:49 21.00722 -158.67710 25355 ft 418 kts 266°
2026-05-03 21:50 21.00440 -158.70816 25751 ft 420 kts 266°
2026-05-03 21:50 21.00155 -158.73940 26125 ft 423 kts 266°
2026-05-03 21:50 20.99869 -158.77073 26496 ft 425 kts 266°
2026-05-03 21:50 20.99582 -158.80216 26861 ft 427 kts 266°
2026-05-03 21:51 20.99290 -158.83384 27224 ft 428 kts 266°
2026-05-03 21:51 20.98998 -158.86562 27564 ft 430 kts 266°
2026-05-03 21:51 20.98704 -158.89753 27894 ft 432 kts 266°
2026-05-03 21:51 20.98408 -158.92963 28222 ft 435 kts 266°
2026-05-03 21:52 20.98110 -158.96183 28556 ft 436 kts 266°
2026-05-03 21:52 20.97800 -158.99425 28894 ft 438 kts 264°
2026-05-03 21:52 20.97026 -159.02583 29237 ft 441 kts 252°
2026-05-03 21:52 20.96041 -159.05696 29517 ft 443 kts 254°
2026-05-03 21:53 20.95077 -159.08831 29794 ft 446 kts 253°
2026-05-03 21:53 20.94097 -159.11978 30106 ft 447 kts 253°
2026-05-03 21:53 20.93119 -159.15099 30390 ft 449 kts 253°
2026-05-03 21:53 20.92125 -159.18269 30681 ft 450 kts 253°
2026-05-03 21:54 20.91114 -159.21490 30958 ft 452 kts 253°
2026-05-03 21:54 20.90126 -159.24634 31236 ft 453 kts 253°
2026-05-03 21:54 20.89121 -159.27831 31512 ft 454 kts 253°
2026-05-03 21:54 20.88113 -159.31036 31775 ft 456 kts 253°
2026-05-03 21:55 20.87092 -159.34279 32049 ft 457 kts 253°
2026-05-03 21:55 20.86091 -159.37454 32388 ft 456 kts 253°
2026-05-03 21:55 20.85081 -159.40658 32770 ft 454 kts 253°
2026-05-03 21:55 20.84074 -159.43848 33132 ft 452 kts 253°
2026-05-03 21:56 20.83070 -159.47027 33491 ft 450 kts 253°
2026-05-03 21:56 20.82071 -159.50189 33838 ft 449 kts 253°
2026-05-03 21:56 20.81073 -159.53345 34134 ft 448 kts 253°
2026-05-03 21:56 20.80075 -159.56499 34168 ft 447 kts 253°
2026-05-03 21:57 20.78097 -159.62746 34160 ft 443 kts 253°
2026-05-03 21:57 20.76115 -159.68993 34156 ft 444 kts 253°
2026-05-03 21:58 20.74132 -159.75233 34155 ft 444 kts 253°
2026-05-03 21:58 20.72147 -159.81476 34155 ft 444 kts 253°
2026-05-03 21:59 20.70164 -159.87703 34156 ft 443 kts 253°
2026-05-03 21:59 20.68175 -159.93939 34156 ft 443 kts 253°
2026-05-03 22:00 20.66186 -160.00165 34155 ft 443 kts 253°
2026-05-03 22:00 20.64209 -160.06348 34157 ft 443 kts 253°
2026-05-03 22:01 20.62204 -160.12608 34155 ft 443 kts 253°
2026-05-03 22:01 20.60222 -160.18786 34155 ft 443 kts 253°
2026-05-03 22:02 20.58224 -160.25005 34156 ft 443 kts 253°
2026-05-03 22:02 20.56222 -160.31230 34152 ft 443 kts 253°
2026-05-03 22:03 20.54223 -160.37438 34139 ft 443 kts 253°
2026-05-03 22:03 20.52217 -160.43660 34138 ft 444 kts 253°
2026-05-03 22:04 20.50207 -160.49883 34138 ft 443 kts 253°
2026-05-03 22:04 20.48195 -160.56106 34137 ft 444 kts 253°
2026-05-03 22:05 20.46182 -160.62320 34138 ft 444 kts 253°
2026-05-03 22:05 20.44165 -160.68543 34138 ft 444 kts 253°
2026-05-03 22:06 20.42142 -160.74774 34136 ft 445 kts 253°
2026-05-03 22:06 20.40114 -160.81009 34138 ft 445 kts 253°
2026-05-03 22:07 20.38099 -160.87190 34136 ft 446 kts 252°
2026-05-03 22:07 20.35709 -160.93296 34139 ft 447 kts 250°
2026-05-03 22:08 20.33321 -160.99406 34137 ft 447 kts 250°
2026-05-03 22:08 20.30935 -161.05526 34138 ft 447 kts 250°
2026-05-03 22:09 20.28550 -161.11641 34140 ft 448 kts 250°
2026-05-03 22:10 20.24960 -161.20830 34138 ft 448 kts 250°
2026-05-03 22:10 20.22560 -161.26964 34133 ft 449 kts 250°
2026-05-03 22:11 20.20161 -161.33087 34137 ft 449 kts 250°
2026-05-03 22:11 20.17770 -161.39188 34136 ft 450 kts 250°
2026-05-03 22:12 20.15357 -161.45330 34137 ft 450 kts 250°
2026-05-03 22:12 20.12942 -161.51472 34137 ft 450 kts 250°
2026-05-03 22:13 20.10526 -161.57611 34137 ft 451 kts 250°
2026-05-03 22:13 20.08103 -161.63760 34138 ft 451 kts 250°
2026-05-03 22:14 20.05676 -161.69911 34137 ft 451 kts 250°
2026-05-03 22:14 20.03247 -161.76060 34137 ft 451 kts 250°
2026-05-03 22:15 20.00821 -161.82195 34135 ft 451 kts 250°
2026-05-03 22:15 19.98386 -161.88346 34138 ft 451 kts 250°
2026-05-03 22:16 19.95948 -161.94496 34139 ft 451 kts 250°
2026-05-03 22:16 19.93509 -162.00641 34137 ft 451 kts 250°
2026-05-03 22:17 19.91071 -162.06777 34136 ft 451 kts 250°
2026-05-03 22:17 19.88625 -162.12925 34134 ft 451 kts 250°
2026-05-03 22:18 19.86197 -162.19022 34138 ft 451 kts 250°
2026-05-03 22:18 19.83751 -162.25158 34139 ft 451 kts 250°
2026-05-03 22:19 19.81310 -162.31271 34145 ft 450 kts 250°
2026-05-03 22:19 19.78863 -162.37394 34145 ft 450 kts 250°
2026-05-03 22:20 19.76828 -162.42480 34146 ft 450 kts 250°
2026-05-03 22:20 19.74382 -162.48588 34147 ft 450 kts 250°
2026-05-03 22:21 19.71524 -162.55716 34146 ft 449 kts 250°
2026-05-03 22:21 19.69493 -162.60778 34146 ft 449 kts 250°
2026-05-03 22:22 19.67045 -162.66871 34146 ft 448 kts 250°
2026-05-03 22:22 19.64646 -162.72976 34147 ft 448 kts 250°
2026-05-03 22:23 19.62269 -162.79082 34147 ft 448 kts 250°
2026-05-03 22:23 19.59896 -162.85171 34145 ft 448 kts 250°
2026-05-03 22:24 19.57513 -162.91274 34146 ft 447 kts 250°
2026-05-03 22:24 19.55132 -162.97366 34146 ft 447 kts 250°
2026-05-03 22:25 19.52749 -163.03459 34145 ft 448 kts 250°
2026-05-03 22:25 19.50366 -163.09541 34146 ft 447 kts 250°
2026-05-03 22:26 19.47978 -163.15631 34145 ft 447 kts 250°
2026-05-03 22:26 19.45585 -163.21727 34143 ft 448 kts 250°
2026-05-03 22:27 19.43190 -163.27819 34146 ft 448 kts 250°
2026-05-03 22:27 19.40799 -163.33896 34147 ft 448 kts 250°
2026-05-03 22:28 19.38400 -163.39985 34146 ft 448 kts 250°
2026-05-03 22:28 19.36014 -163.46035 34147 ft 448 kts 250°
2026-05-03 22:29 19.33610 -163.52122 34146 ft 448 kts 250°
2026-05-03 22:29 19.31208 -163.58201 34146 ft 448 kts 250°
2026-05-03 22:30 19.28800 -163.64285 34148 ft 449 kts 250°
2026-05-03 22:30 19.26387 -163.70375 34145 ft 448 kts 249°
2026-05-03 22:31 19.23975 -163.76456 34147 ft 448 kts 249°
2026-05-03 22:31 19.21564 -163.82527 34155 ft 448 kts 249°
2026-05-03 22:32 19.19164 -163.88565 34145 ft 448 kts 249°
2026-05-03 22:32 19.16749 -163.94632 34147 ft 447 kts 249°
2026-05-03 22:33 19.14336 -164.00689 34147 ft 447 kts 249°
2026-05-03 22:33 19.11925 -164.06735 34151 ft 448 kts 249°
2026-05-03 22:34 19.09502 -164.12802 34147 ft 447 kts 249°
2026-05-03 22:34 19.07082 -164.18857 34146 ft 447 kts 249°
2026-05-03 22:35 19.04659 -164.24909 34146 ft 447 kts 249°
2026-05-03 22:35 19.02242 -164.30944 34147 ft 446 kts 249°
2026-05-03 22:36 18.99823 -164.36975 34146 ft 446 kts 249°
2026-05-03 22:36 18.97402 -164.43004 34146 ft 445 kts 249°
2026-05-03 22:37 18.94983 -164.49022 34147 ft 445 kts 249°
2026-05-03 22:37 18.92581 -164.54992 34147 ft 445 kts 249°
2026-05-03 22:38 18.90161 -164.61000 34144 ft 444 kts 249°
2026-05-03 22:38 18.87738 -164.67008 34146 ft 444 kts 249°
2026-05-03 22:39 18.85316 -164.73006 34150 ft 444 kts 249°
2026-05-03 22:39 18.82895 -164.78998 34148 ft 444 kts 249°
2026-05-03 22:40 18.80469 -164.84993 34146 ft 444 kts 249°
2026-05-03 22:40 18.78044 -164.90981 34146 ft 444 kts 249°
2026-05-03 22:41 18.75618 -164.96965 34146 ft 444 kts 249°
2026-05-03 22:41 18.73194 -165.02939 34147 ft 444 kts 249°
2026-05-03 22:42 18.70764 -165.08917 34147 ft 443 kts 249°
2026-05-03 22:42 18.68336 -165.14887 34147 ft 442 kts 249°
2026-05-03 22:43 18.65906 -165.20854 34149 ft 443 kts 249°
2026-05-03 22:43 18.63478 -165.26811 34146 ft 442 kts 249°
2026-05-03 22:44 18.61051 -165.32758 34139 ft 441 kts 249°
2026-05-03 22:44 18.58623 -165.38702 34147 ft 442 kts 249°
2026-05-03 22:45 18.56190 -165.44651 34148 ft 441 kts 249°
2026-05-03 22:45 18.53765 -165.50577 34146 ft 441 kts 249°
2026-05-03 22:46 18.51338 -165.56499 34148 ft 440 kts 249°
2026-05-03 22:46 18.48910 -165.62419 34146 ft 440 kts 248°
2026-05-03 22:47 18.46483 -165.68329 34150 ft 439 kts 249°
2026-05-03 22:47 18.44063 -165.74216 34157 ft 439 kts 248°
2026-05-03 22:48 18.41654 -165.80070 34154 ft 439 kts 248°
2026-05-03 22:48 18.39226 -165.85966 34157 ft 438 kts 248°
2026-05-03 22:49 18.36801 -165.91848 34155 ft 437 kts 248°
2026-05-03 22:49 18.34381 -165.97711 34156 ft 438 kts 248°
2026-05-03 22:50 18.31954 -166.03585 34155 ft 437 kts 248°
2026-05-03 22:50 18.29527 -166.09454 34158 ft 437 kts 248°
2026-05-03 22:51 18.27100 -166.15316 34156 ft 437 kts 248°
2026-05-03 22:51 18.24674 -166.21168 34150 ft 437 kts 248°
2026-05-03 22:52 18.22259 -166.26992 34158 ft 437 kts 248°
2026-05-03 22:52 18.19828 -166.32846 34154 ft 437 kts 248°
2026-05-03 22:53 18.17395 -166.38698 34154 ft 437 kts 248°
2026-05-03 22:53 18.14958 -166.44555 34157 ft 437 kts 248°
2026-05-03 22:54 18.12524 -166.50399 34157 ft 438 kts 248°
2026-05-03 22:54 18.10080 -166.56260 34156 ft 438 kts 248°
2026-05-03 22:55 18.07634 -166.62121 34156 ft 437 kts 248°
2026-05-03 22:55 18.05187 -166.67978 34157 ft 438 kts 248°
2026-05-03 22:56 18.02740 -166.73830 34156 ft 438 kts 248°
2026-05-03 22:56 18.00288 -166.79688 34156 ft 438 kts 248°
2026-05-03 22:57 17.97839 -166.85532 34156 ft 435 kts 248°
2026-05-03 22:57 17.95402 -166.91343 34156 ft 435 kts 248°
2026-05-03 22:58 17.92968 -166.97139 34156 ft 435 kts 248°
2026-05-03 22:58 17.90530 -167.02941 34156 ft 434 kts 248°
2026-05-03 22:59 17.88087 -167.08748 34165 ft 435 kts 248°
2026-05-03 22:59 17.85640 -167.14559 34165 ft 435 kts 248°
2026-05-03 23:00 17.83197 -167.20355 34167 ft 435 kts 248°
2026-05-03 23:00 17.80749 -167.26156 34163 ft 434 kts 248°
2026-05-03 23:01 17.78303 -167.31950 34165 ft 435 kts 248°
2026-05-03 23:01 17.75848 -167.37757 34165 ft 435 kts 248°
2026-05-03 23:02 17.73397 -167.43549 34161 ft 435 kts 248°
2026-05-03 23:02 17.70957 -167.49310 34165 ft 435 kts 248°
2026-05-03 23:03 17.68500 -167.55107 34155 ft 435 kts 247°
2026-05-03 23:03 17.66042 -167.60897 34155 ft 435 kts 247°
2026-05-03 23:04 17.63585 -167.66681 34158 ft 436 kts 247°
2026-05-03 23:04 17.61118 -167.72484 34155 ft 435 kts 247°
2026-05-03 23:05 17.58650 -167.78282 34156 ft 436 kts 247°
2026-05-03 23:05 17.56181 -167.84079 34155 ft 435 kts 247°
2026-05-03 23:06 17.53716 -167.89861 34156 ft 435 kts 247°
2026-05-03 23:06 17.51244 -167.95651 34156 ft 435 kts 247°
2026-05-03 23:07 17.48771 -168.01441 34157 ft 435 kts 247°
2026-05-03 23:07 17.46295 -168.07231 34157 ft 436 kts 247°
2026-05-03 23:08 17.43823 -168.13005 34156 ft 435 kts 247°
2026-05-03 23:08 17.41345 -168.18790 34156 ft 435 kts 247°
2026-05-03 23:09 17.38865 -168.24572 34158 ft 435 kts 247°
2026-05-03 23:09 17.36401 -168.30314 34154 ft 435 kts 247°
2026-05-03 23:10 17.33901 -168.36132 34156 ft 435 kts 247°
2026-05-03 23:10 17.31841 -168.40925 34155 ft 435 kts 247°
2026-05-03 23:11 17.28951 -168.47637 34156 ft 436 kts 247°
2026-05-03 23:11 17.26462 -168.53415 34156 ft 436 kts 247°
2026-05-03 23:12 17.23969 -168.59195 34155 ft 436 kts 247°
2026-05-03 23:12 17.21483 -168.64955 34166 ft 436 kts 247°
2026-05-03 23:13 17.19409 -168.69756 34156 ft 436 kts 247°
2026-05-03 23:13 17.16489 -168.76506 34152 ft 436 kts 247°
2026-05-03 23:14 17.14413 -168.81304 34157 ft 436 kts 247°
2026-05-03 23:14 17.11914 -168.87074 34156 ft 436 kts 247°
2026-05-03 23:15 17.09413 -168.92842 34155 ft 436 kts 247°
2026-05-03 23:15 17.06909 -168.98611 34157 ft 436 kts 247°
2026-05-03 23:16 17.04403 -169.04381 34155 ft 436 kts 247°
2026-05-03 23:16 17.01900 -169.10138 34155 ft 436 kts 247°
2026-05-03 23:17 16.99383 -169.15920 34156 ft 437 kts 247°
2026-05-03 23:17 16.96867 -169.21697 34154 ft 437 kts 247°
2026-05-03 23:18 16.94350 -169.27471 34156 ft 437 kts 247°
2026-05-03 23:18 16.91835 -169.33234 34155 ft 437 kts 247°
2026-05-03 23:19 16.89331 -169.38967 34156 ft 437 kts 247°
2026-05-03 23:19 16.86807 -169.44741 34154 ft 437 kts 247°
2026-05-03 23:20 16.84280 -169.50515 34163 ft 437 kts 247°
2026-05-03 23:20 16.81757 -169.56275 34164 ft 437 kts 247°
2026-05-03 23:21 16.79229 -169.62044 34166 ft 437 kts 247°
2026-05-03 23:21 16.76697 -169.67813 34165 ft 437 kts 247°
2026-05-03 23:22 16.72910 -169.76435 34163 ft 438 kts 246°
2026-05-03 23:22 16.70375 -169.82201 34156 ft 438 kts 246°
2026-05-03 23:23 16.67832 -169.87977 34155 ft 438 kts 246°
2026-05-03 23:23 16.65287 -169.93754 34156 ft 438 kts 246°
2026-05-03 23:24 16.62741 -169.99530 34156 ft 438 kts 246°
2026-05-03 23:24 16.60194 -170.05301 34156 ft 439 kts 246°
2026-05-03 23:25 16.57635 -170.11094 34154 ft 440 kts 246°
2026-05-03 23:25 16.56790 -170.13005 34159 ft 440 kts 246°
2026-05-03 23:26 16.54643 -170.17861 34160 ft 440 kts 246°
2026-05-03 23:26 16.52100 -170.23609 34155 ft 439 kts 246°
2026-05-03 23:27 16.49528 -170.29414 34156 ft 439 kts 246°
2026-05-03 23:27 16.46980 -170.35162 34156 ft 440 kts 246°
2026-05-03 23:28 16.44416 -170.40941 34155 ft 440 kts 246°
2026-05-03 23:28 16.41849 -170.46721 34156 ft 440 kts 246°
2026-05-03 23:29 16.39284 -170.52491 34154 ft 440 kts 246°
2026-05-03 23:29 16.36716 -170.58262 34154 ft 439 kts 246°
2026-05-03 23:30 16.34145 -170.64036 34154 ft 440 kts 246°
2026-05-03 23:30 16.31569 -170.69816 34155 ft 440 kts 246°
2026-05-03 23:31 16.28996 -170.75587 34157 ft 441 kts 246°
2026-05-03 23:31 16.26415 -170.81369 34156 ft 440 kts 246°
2026-05-03 23:32 16.23833 -170.87149 34155 ft 440 kts 246°
2026-05-03 23:32 16.21248 -170.92930 34159 ft 441 kts 246°
2026-05-03 23:33 16.18665 -170.98704 34165 ft 441 kts 246°
2026-05-03 23:33 16.16088 -171.04458 34164 ft 441 kts 246°
2026-05-03 23:34 16.13495 -171.10242 34165 ft 441 kts 246°
2026-05-03 23:34 16.10880 -171.16070 34166 ft 442 kts 246°
2026-05-03 23:35 16.08303 -171.21811 34166 ft 442 kts 246°
2026-05-03 23:35 16.05699 -171.27605 34164 ft 442 kts 246°
2026-05-03 23:36 16.03094 -171.33396 34167 ft 442 kts 246°
2026-05-03 23:36 16.00487 -171.39186 34165 ft 442 kts 246°
2026-05-03 23:37 15.97880 -171.44974 34163 ft 440 kts 246°
2026-05-03 23:37 15.95289 -171.50720 34166 ft 440 kts 246°
2026-05-03 23:38 15.92654 -171.56468 34162 ft 441 kts 245°
2026-05-03 23:38 15.89934 -171.62177 34166 ft 442 kts 245°
2026-05-03 23:39 15.87222 -171.67901 34163 ft 442 kts 245°
2026-05-03 23:39 15.84512 -171.73621 34166 ft 443 kts 245°
2026-05-03 23:40 15.81810 -171.79318 34164 ft 442 kts 245°
2026-05-03 23:40 15.79088 -171.85053 34165 ft 443 kts 245°
2026-05-03 23:41 15.76367 -171.90782 34166 ft 443 kts 245°
2026-05-03 23:41 15.73648 -171.96500 34165 ft 443 kts 245°
2026-05-03 23:42 15.70921 -172.02232 34164 ft 443 kts 245°
2026-05-03 23:42 15.68193 -172.07960 34174 ft 443 kts 245°
2026-05-03 23:43 15.65466 -172.13683 34173 ft 442 kts 245°
2026-05-03 23:43 15.62743 -172.19392 34175 ft 442 kts 245°
2026-05-03 23:44 15.60019 -172.25097 34173 ft 441 kts 245°
2026-05-03 23:44 15.57294 -172.30803 34174 ft 441 kts 245°
2026-05-03 23:45 15.54572 -172.36497 34167 ft 440 kts 245°
2026-05-03 23:45 15.51877 -172.42129 34175 ft 440 kts 245°
2026-05-03 23:46 15.49159 -172.47804 34176 ft 439 kts 245°
2026-05-03 23:46 15.46444 -172.53469 34176 ft 438 kts 245°
2026-05-03 23:47 15.43732 -172.59124 34176 ft 437 kts 245°
2026-05-03 23:47 15.41027 -172.64759 34175 ft 437 kts 245°
2026-05-03 23:48 15.38323 -172.70389 34173 ft 436 kts 245°
2026-05-03 23:48 15.35615 -172.76020 34174 ft 436 kts 245°
2026-05-03 23:49 15.32910 -172.81642 34172 ft 435 kts 245°
2026-05-03 23:49 15.30214 -172.87241 34174 ft 435 kts 245°
2026-05-03 23:50 15.27967 -172.91905 34175 ft 435 kts 245°
2026-05-03 23:50 15.24805 -172.98463 34174 ft 435 kts 245°
2026-05-03 23:51 15.22122 -173.04021 34174 ft 434 kts 245°
2026-05-03 23:51 15.19425 -173.09605 34175 ft 434 kts 245°
2026-05-03 23:52 15.16723 -173.15195 34174 ft 434 kts 245°
2026-05-03 23:52 15.14019 -173.20786 34175 ft 434 kts 245°
2026-05-03 23:53 15.11314 -173.26372 34174 ft 434 kts 245°
2026-05-03 23:53 15.08614 -173.31946 34175 ft 434 kts 245°
2026-05-03 23:54 15.05908 -173.37529 34174 ft 434 kts 245°
2026-05-03 23:54 15.03200 -173.43109 34174 ft 434 kts 245°
2026-05-03 23:55 15.00492 -173.48684 34173 ft 433 kts 245°
2026-05-03 23:55 14.97794 -173.54236 34175 ft 433 kts 245°
2026-05-03 23:56 14.95089 -173.59798 34174 ft 433 kts 245°
2026-05-03 23:56 14.92383 -173.65359 34170 ft 433 kts 245°
2026-05-03 23:57 14.89675 -173.70920 34175 ft 432 kts 245°
2026-05-03 23:57 14.86973 -173.76463 34173 ft 432 kts 245°
2026-05-03 23:58 14.84275 -173.81995 34174 ft 432 kts 244°
2026-05-03 23:58 14.81572 -173.87532 34182 ft 432 kts 244°
2026-05-03 23:59 14.78867 -173.93069 34186 ft 431 kts 244°
2026-05-03 23:59 14.76187 -173.98551 34183 ft 430 kts 244°
2026-05-04 00:00 14.73491 -174.04064 34181 ft 432 kts 245°
2026-05-04 00:00 14.70781 -174.09598 34184 ft 432 kts 245°
2026-05-04 00:01 14.68074 -174.15124 34183 ft 430 kts 244°
2026-05-04 00:01 14.65369 -174.20642 34183 ft 431 kts 244°
2026-05-04 00:02 14.62668 -174.26146 34183 ft 431 kts 244°
2026-05-04 00:02 14.59958 -174.31665 34174 ft 431 kts 244°
2026-05-04 00:03 14.57249 -174.37178 34156 ft 431 kts 244°
2026-05-04 00:03 14.54538 -174.42693 34156 ft 431 kts 244°
2026-05-04 00:04 14.51831 -174.48194 34161 ft 431 kts 244°
2026-05-04 00:04 14.49116 -174.53708 34156 ft 431 kts 244°
2026-05-04 00:05 14.46403 -174.59214 34156 ft 431 kts 244°
2026-05-04 00:05 14.44145 -174.63792 34156 ft 431 kts 244°
2026-05-04 00:06 14.41428 -174.69300 34156 ft 431 kts 244°
2026-05-04 00:06 14.38712 -174.74800 34154 ft 431 kts 244°
2026-05-04 00:07 14.35990 -174.80310 34156 ft 431 kts 244°
2026-05-04 00:07 14.33266 -174.85818 34156 ft 431 kts 244°
2026-05-04 00:08 14.30542 -174.91322 34157 ft 431 kts 245°
2026-05-04 00:08 14.27820 -174.96820 34156 ft 431 kts 245°
2026-05-04 00:09 14.25094 -175.02322 34153 ft 431 kts 245°
2026-05-04 00:09 14.22386 -175.07784 34146 ft 431 kts 245°
2026-05-04 00:10 14.19657 -175.13284 34147 ft 431 kts 245°
2026-05-04 00:10 14.16931 -175.18773 34143 ft 431 kts 245°
2026-05-04 00:11 14.14197 -175.24275 34148 ft 431 kts 245°
2026-05-04 00:11 14.11468 -175.29764 34146 ft 430 kts 245°
2026-05-04 00:12 14.08736 -175.35254 34147 ft 431 kts 245°
2026-05-04 00:12 14.06006 -175.40736 34154 ft 430 kts 245°
2026-05-04 00:13 14.03303 -175.46163 34146 ft 424 kts 245°
2026-05-04 00:13 14.00606 -175.51572 34147 ft 425 kts 245°
2026-05-04 00:14 13.97910 -175.56974 34145 ft 424 kts 245°
2026-05-04 00:14 13.95237 -175.62328 34147 ft 424 kts 245°
2026-05-04 00:15 13.92521 -175.67762 34148 ft 424 kts 245°
2026-05-04 00:15 13.89843 -175.73118 34147 ft 423 kts 245°
2026-05-04 00:16 13.87153 -175.78496 34145 ft 423 kts 245°
2026-05-04 00:16 13.84457 -175.83881 34147 ft 423 kts 245°
2026-05-04 00:17 13.81763 -175.89258 34147 ft 423 kts 245°
2026-05-04 00:17 13.79066 -175.94637 34147 ft 423 kts 245°
2026-05-04 00:18 13.76367 -176.00018 34147 ft 423 kts 245°
2026-05-04 00:18 13.73666 -176.05399 34145 ft 423 kts 245°
2026-05-04 00:19 13.70966 -176.10774 34149 ft 424 kts 245°
2026-05-04 00:19 13.68263 -176.16152 34146 ft 423 kts 245°
2026-05-04 00:20 13.65556 -176.21533 34171 ft 424 kts 245°
2026-05-04 00:20 13.62850 -176.26910 34247 ft 423 kts 245°
2026-05-04 00:21 13.60151 -176.32270 34245 ft 423 kts 245°
2026-05-04 00:21 13.57468 -176.37593 34248 ft 422 kts 245°
2026-05-04 00:22 13.54765 -176.42954 34249 ft 422 kts 245°
2026-05-04 00:22 13.52059 -176.48315 34247 ft 423 kts 245°
2026-05-04 00:23 13.49359 -176.53663 34234 ft 422 kts 245°
2026-05-04 00:23 13.46652 -176.59020 34240 ft 422 kts 245°
2026-05-04 00:24 13.43945 -176.64376 34235 ft 422 kts 245°
2026-05-04 00:24 13.41237 -176.69728 34238 ft 423 kts 245°
2026-05-04 00:25 13.38527 -176.75081 34235 ft 422 kts 245°
2026-05-04 00:25 13.35823 -176.80418 34236 ft 422 kts 245°
2026-05-04 00:26 13.33112 -176.85769 34233 ft 422 kts 245°
2026-05-04 00:26 13.30417 -176.91081 34236 ft 422 kts 244°
2026-05-04 00:27 13.27702 -176.96430 34235 ft 422 kts 244°
2026-05-04 00:27 13.24995 -177.01759 34236 ft 422 kts 244°
2026-05-04 00:28 13.22281 -177.07101 34239 ft 422 kts 244°
2026-05-04 00:28 13.19566 -177.12439 34240 ft 422 kts 244°
2026-05-04 00:29 13.16850 -177.17778 34242 ft 422 kts 244°
2026-05-04 00:29 13.14140 -177.23101 34237 ft 422 kts 244°
2026-05-04 00:30 13.11423 -177.28433 34241 ft 422 kts 244°
2026-05-04 00:30 13.08705 -177.33765 34239 ft 422 kts 244°
2026-05-04 00:31 13.05983 -177.39102 34246 ft 423 kts 244°
2026-05-04 00:31 13.03264 -177.44429 34287 ft 422 kts 244°
2026-05-04 00:32 13.00544 -177.49755 34287 ft 422 kts 244°
2026-05-04 00:32 12.97818 -177.55089 34293 ft 422 kts 244°
2026-05-04 00:33 12.93750 -177.63044 34296 ft 422 kts 244°
2026-05-04 00:34 12.91028 -177.68363 34295 ft 422 kts 244°
2026-05-04 00:34 12.88302 -177.73685 34295 ft 422 kts 244°
2026-05-04 00:35 12.85572 -177.79012 34296 ft 422 kts 244°
2026-05-04 00:35 12.82842 -177.84336 34294 ft 422 kts 244°
2026-05-04 00:36 12.80119 -177.89643 34297 ft 422 kts 244°
2026-05-04 00:36 12.77389 -177.94960 34293 ft 422 kts 244°
2026-05-04 00:37 12.74659 -178.00277 34296 ft 421 kts 244°
2026-05-04 00:37 12.71928 -178.05590 34293 ft 422 kts 244°
2026-05-04 00:38 12.69196 -178.10899 34293 ft 421 kts 244°
2026-05-04 00:38 12.66488 -178.16161 34292 ft 421 kts 244°
2026-05-04 00:39 12.63758 -178.21464 34291 ft 421 kts 244°
2026-05-04 00:39 12.61025 -178.26768 34289 ft 421 kts 244°
2026-05-04 00:40 12.58294 -178.32066 34294 ft 421 kts 244°
2026-05-04 00:40 12.55565 -178.37355 34291 ft 421 kts 244°
2026-05-04 00:41 12.52831 -178.42652 34291 ft 421 kts 244°
2026-05-04 00:41 12.50094 -178.47952 34291 ft 421 kts 244°
2026-05-04 00:42 12.47357 -178.53248 34297 ft 421 kts 244°
2026-05-04 00:42 12.44625 -178.58531 34296 ft 421 kts 244°
2026-05-04 00:43 12.41890 -178.63818 34297 ft 421 kts 244°
2026-05-04 00:43 12.39152 -178.69107 34286 ft 421 kts 244°
2026-05-04 00:44 12.36406 -178.74409 34293 ft 422 kts 244°
2026-05-04 00:44 12.33660 -178.79706 34295 ft 422 kts 244°
2026-05-04 00:45 12.30918 -178.84994 34294 ft 421 kts 244°
2026-05-04 00:45 12.28175 -178.90280 34293 ft 421 kts 244°
2026-05-04 00:46 12.25433 -178.95563 34293 ft 421 kts 244°
2026-05-04 00:46 12.22688 -179.00845 34291 ft 421 kts 244°
2026-05-04 00:47 12.19966 -179.06082 34294 ft 421 kts 244°
2026-05-04 00:47 12.17220 -179.11362 34289 ft 420 kts 244°
2026-05-04 00:48 12.14480 -179.16628 34293 ft 420 kts 244°
2026-05-04 00:48 12.11739 -179.21892 34294 ft 420 kts 244°
2026-05-04 00:49 12.09000 -179.27152 34317 ft 421 kts 244°
2026-05-04 00:49 12.07626 -179.29789 34623 ft 421 kts 244°
2026-05-04 00:49 12.06247 -179.32435 34872 ft 422 kts 244°
2026-05-04 00:49 12.04866 -179.35082 35163 ft 423 kts 244°
2026-05-04 00:50 12.03483 -179.37735 35436 ft 423 kts 244°
2026-05-04 00:50 12.02100 -179.40386 35726 ft 423 kts 244°
2026-05-04 00:50 12.00714 -179.43041 35997 ft 424 kts 244°
2026-05-04 00:50 11.99329 -179.45696 36234 ft 424 kts 244°
2026-05-04 00:51 11.97944 -179.48349 36310 ft 426 kts 244°
2026-05-04 00:51 11.95160 -179.53677 36294 ft 424 kts 244°
2026-05-04 00:52 11.92386 -179.58986 36293 ft 423 kts 244°
2026-05-04 00:52 11.89613 -179.64288 36292 ft 424 kts 244°
2026-05-04 00:53 11.86855 -179.69560 36292 ft 424 kts 244°
2026-05-04 00:53 11.84083 -179.74855 36295 ft 424 kts 244°
2026-05-04 00:54 11.81305 -179.80159 36294 ft 424 kts 244°
2026-05-04 00:54 11.78526 -179.85460 36294 ft 424 kts 244°
2026-05-04 00:55 11.75745 -179.90764 36293 ft 423 kts 244°
2026-05-04 00:55 11.72971 -179.96052 36293 ft 424 kts 244°
2026-05-04 00:56 11.70120 179.98682 36295 ft 424 kts 242°
2026-05-04 00:56 11.67177 179.93471 36238 ft 424 kts 242°
2026-05-04 00:57 11.64246 179.88256 36103 ft 424 kts 242°
2026-05-04 00:57 11.61322 179.83053 35975 ft 423 kts 242°
2026-05-04 00:58 11.58387 179.77834 35966 ft 425 kts 242°
2026-05-04 00:58 11.55443 179.72601 35963 ft 425 kts 242°
2026-05-04 00:59 11.52500 179.67374 35961 ft 425 kts 242°
2026-05-04 00:59 11.50055 179.63031 35962 ft 425 kts 242°
2026-05-04 01:00 11.47116 179.57816 35961 ft 425 kts 242°
2026-05-04 01:00 11.43695 179.51748 35962 ft 425 kts 242°
2026-05-04 01:01 11.41226 179.47370 35963 ft 425 kts 242°
2026-05-04 01:01 11.38277 179.42144 35959 ft 425 kts 242°
2026-05-04 01:02 11.35331 179.36927 35963 ft 426 kts 242°
2026-05-04 01:02 11.32375 179.31693 35962 ft 426 kts 242°
2026-05-04 01:03 11.29438 179.26497 35962 ft 426 kts 242°
2026-05-04 01:03 11.26482 179.21270 35961 ft 426 kts 242°
2026-05-04 01:04 11.23531 179.16055 35953 ft 426 kts 242°
2026-05-04 01:04 11.20572 179.10828 35955 ft 426 kts 242°
2026-05-04 01:05 11.17614 179.05605 35952 ft 426 kts 242°
2026-05-04 01:05 11.14656 179.00385 35950 ft 425 kts 242°
2026-05-04 01:06 11.11702 178.95175 35953 ft 426 kts 242°
2026-05-04 01:06 11.08739 178.89950 35953 ft 426 kts 242°
2026-05-04 01:07 11.05773 178.84725 35953 ft 427 kts 242°
2026-05-04 01:07 11.02804 178.79496 35950 ft 427 kts 242°
2026-05-04 01:08 10.99837 178.74273 35951 ft 427 kts 242°
2026-05-04 01:08 10.96865 178.69045 35956 ft 427 kts 242°
2026-05-04 01:09 10.93914 178.63855 35953 ft 427 kts 242°
2026-05-04 01:09 10.90943 178.58633 35949 ft 426 kts 242°
2026-05-04 01:10 10.87971 178.53413 35952 ft 426 kts 242°
2026-05-04 01:10 10.85009 178.48212 35949 ft 426 kts 242°
2026-05-04 01:11 10.82038 178.42997 35952 ft 426 kts 242°
2026-05-04 01:11 10.79068 178.37787 35954 ft 426 kts 242°
2026-05-04 01:12 10.76098 178.32579 35953 ft 426 kts 242°
2026-05-04 01:12 10.73131 178.27379 35953 ft 425 kts 242°
2026-05-04 01:13 10.70159 178.22175 35938 ft 426 kts 242°
2026-05-04 01:13 10.67184 178.16967 35934 ft 426 kts 242°
2026-05-04 01:14 10.64209 178.11760 35936 ft 426 kts 242°
2026-05-04 01:14 10.61238 178.06564 35934 ft 426 kts 242°
2026-05-04 01:15 10.58281 178.01394 35933 ft 426 kts 242°
2026-05-04 01:15 10.55301 177.96187 35936 ft 427 kts 242°
2026-05-04 01:16 10.52313 177.90969 35934 ft 427 kts 242°
2026-05-04 01:16 10.49329 177.85760 35924 ft 427 kts 242°
2026-05-04 01:17 10.46338 177.80541 35926 ft 427 kts 242°
2026-05-04 01:17 10.43350 177.75329 35925 ft 427 kts 242°
2026-05-04 01:18 10.40360 177.70118 35928 ft 427 kts 242°
2026-05-04 01:18 10.37366 177.64901 35923 ft 427 kts 242°
2026-05-04 01:19 10.34381 177.59703 35924 ft 427 kts 242°
2026-05-04 01:19 10.31386 177.54489 35922 ft 427 kts 242°
2026-05-04 01:20 10.28389 177.49275 35928 ft 428 kts 242°
2026-05-04 01:20 10.25387 177.44054 35924 ft 428 kts 242°
2026-05-04 01:21 10.22387 177.38839 35926 ft 428 kts 242°
2026-05-04 01:21 10.19386 177.33625 35923 ft 428 kts 242°
2026-05-04 01:22 10.16374 177.28393 35923 ft 429 kts 242°
2026-05-04 01:22 10.13363 177.23165 35922 ft 429 kts 242°
2026-05-04 01:23 10.10371 177.17973 35922 ft 430 kts 242°
2026-05-04 01:23 10.07351 177.12736 35926 ft 430 kts 242°
2026-05-04 01:24 10.04327 177.07493 35926 ft 430 kts 242°
2026-05-04 01:24 10.01302 177.02250 35926 ft 431 kts 242°
2026-05-04 01:25 9.98530 176.96880 35930 ft 431 kts 245°
2026-05-04 01:25 9.95821 176.91415 35928 ft 435 kts 244°
2026-05-04 01:26 9.93087 176.85937 35925 ft 435 kts 245°
2026-05-04 01:26 9.90348 176.80453 35924 ft 436 kts 244°
2026-05-04 01:27 9.87615 176.74983 35925 ft 436 kts 244°
2026-05-04 01:27 9.84868 176.69490 35925 ft 437 kts 244°
2026-05-04 01:28 9.82123 176.64000 35926 ft 436 kts 244°
2026-05-04 01:28 9.79374 176.58508 35926 ft 437 kts 244°
2026-05-04 01:29 9.76646 176.53059 35923 ft 437 kts 244°
2026-05-04 01:29 9.73893 176.47563 35926 ft 438 kts 244°
2026-05-04 01:30 9.71136 176.42062 35926 ft 438 kts 244°
2026-05-04 01:30 9.68378 176.36563 35924 ft 438 kts 244°
2026-05-04 01:31 9.65619 176.31063 35923 ft 438 kts 244°
2026-05-04 01:31 9.62862 176.25570 35923 ft 438 kts 244°
2026-05-04 01:32 9.60100 176.20069 35927 ft 438 kts 244°
2026-05-04 01:32 9.57339 176.14574 35920 ft 438 kts 244°
2026-05-04 01:33 9.54576 176.09077 35916 ft 438 kts 244°
2026-05-04 01:33 9.51818 176.03590 35916 ft 438 kts 244°
2026-05-04 01:34 9.49053 175.98095 35913 ft 438 kts 244°
2026-05-04 01:34 9.46283 175.92592 35917 ft 439 kts 244°
2026-05-04 01:35 9.43508 175.87081 35914 ft 439 kts 244°
2026-05-04 01:35 9.40739 175.81585 35917 ft 440 kts 244°
2026-05-04 01:36 9.37977 175.76106 35916 ft 440 kts 244°
2026-05-04 01:36 9.35197 175.70593 35914 ft 440 kts 244°
2026-05-04 01:37 9.32411 175.65070 35918 ft 440 kts 244°
2026-05-04 01:37 9.29629 175.59560 35917 ft 441 kts 244°
2026-05-04 01:38 9.26839 175.54035 35917 ft 441 kts 244°
2026-05-04 01:38 9.24045 175.48503 35916 ft 441 kts 244°
2026-05-04 01:39 9.21248 175.42969 35915 ft 441 kts 244°
2026-05-04 01:39 9.18458 175.37453 35915 ft 442 kts 244°
2026-05-04 01:40 9.15658 175.31918 35915 ft 442 kts 244°
2026-05-04 01:40 9.12856 175.26382 35919 ft 442 kts 244°
2026-05-04 01:41 9.10054 175.20848 35918 ft 442 kts 244°
2026-05-04 01:41 9.07250 175.15313 35916 ft 443 kts 244°
2026-05-04 01:42 9.04439 175.09767 35916 ft 443 kts 244°
2026-05-04 01:42 9.01626 175.04219 35915 ft 443 kts 244°
2026-05-04 01:43 8.98832 174.98711 35916 ft 443 kts 244°
2026-05-04 01:43 8.96019 174.93170 35914 ft 444 kts 244°
2026-05-04 01:44 8.93198 174.87613 35915 ft 444 kts 244°
2026-05-04 01:44 8.90377 174.82060 35916 ft 444 kts 244°
2026-05-04 01:45 8.87554 174.76505 35907 ft 444 kts 244°
2026-05-04 01:45 8.83318 174.68175 35905 ft 445 kts 244°
2026-05-04 01:46 8.80490 174.62615 35906 ft 445 kts 244°
2026-05-04 01:46 8.77658 174.57052 35905 ft 445 kts 244°
2026-05-04 01:47 8.74820 174.51479 35906 ft 446 kts 244°
2026-05-04 01:47 8.71987 174.45918 35905 ft 445 kts 244°
2026-05-04 01:48 8.69148 174.40347 35907 ft 447 kts 244°
2026-05-04 01:48 8.66303 174.34769 35905 ft 447 kts 243°
2026-05-04 01:49 8.63454 174.29183 35907 ft 447 kts 243°
2026-05-04 01:49 8.60609 174.23608 35901 ft 447 kts 243°
2026-05-04 01:50 8.57755 174.18018 35907 ft 448 kts 243°
2026-05-04 01:50 8.54916 174.12460 35905 ft 448 kts 243°
2026-05-04 01:51 8.52057 174.06863 35906 ft 449 kts 243°
2026-05-04 01:51 8.49200 174.01275 35907 ft 448 kts 243°
2026-05-04 01:52 8.46335 173.95674 35908 ft 449 kts 243°
2026-05-04 01:52 8.43466 173.90065 35908 ft 449 kts 243°
2026-05-04 01:53 8.41081 173.85406 35905 ft 449 kts 243°
2026-05-04 01:53 8.38215 173.79809 35906 ft 449 kts 243°
2026-05-04 01:54 8.35342 173.74201 35904 ft 449 kts 243°
2026-05-04 01:54 8.32470 173.68595 35897 ft 450 kts 243°
2026-05-04 01:55 8.29597 173.62992 35899 ft 449 kts 243°
2026-05-04 01:55 8.26730 173.57404 35895 ft 449 kts 243°
2026-05-04 01:56 8.23858 173.51806 35889 ft 449 kts 243°
2026-05-04 01:56 8.20982 173.46204 35892 ft 449 kts 243°
2026-05-04 01:57 8.18111 173.40613 35893 ft 448 kts 243°
2026-05-04 01:57 8.15264 173.35072 35894 ft 448 kts 243°
2026-05-04 01:58 8.12395 173.29488 35899 ft 449 kts 243°
2026-05-04 01:58 8.09520 173.23898 35897 ft 449 kts 243°
2026-05-04 01:59 8.06644 173.18306 35902 ft 449 kts 243°
2026-05-04 01:59 8.03778 173.12736 35863 ft 444 kts 243°
2026-05-04 02:00 8.02366 173.09995 35643 ft 436 kts 243°
2026-05-04 02:00 8.00979 173.07300 35393 ft 430 kts 243°
2026-05-04 02:00 7.99606 173.04634 35150 ft 427 kts 243°
2026-05-04 02:00 7.98240 173.01982 34899 ft 426 kts 243°
2026-05-04 02:01 7.96875 172.99332 34655 ft 425 kts 243°
2026-05-04 02:01 7.95514 172.96691 34414 ft 424 kts 243°
2026-05-04 02:01 7.94156 172.94056 34155 ft 422 kts 243°
2026-05-04 02:01 7.92808 172.91440 33886 ft 421 kts 243°
2026-05-04 02:02 7.91461 172.88826 33623 ft 419 kts 243°
2026-05-04 02:02 7.90126 172.86235 33258 ft 414 kts 243°
2026-05-04 02:02 7.88796 172.83659 32658 ft 415 kts 243°
2026-05-04 02:02 7.87460 172.81068 32024 ft 417 kts 243°
2026-05-04 02:03 7.86122 172.78474 31491 ft 416 kts 243°
2026-05-04 02:03 7.84822 172.75955 31073 ft 413 kts 244°
2026-05-04 02:03 7.83502 172.73396 30621 ft 410 kts 244°
2026-05-04 02:03 7.82193 172.70862 30155 ft 408 kts 244°
2026-05-04 02:04 7.80889 172.68335 29697 ft 405 kts 244°
2026-05-04 02:04 7.79591 172.65822 29237 ft 403 kts 244°
2026-05-04 02:04 7.78299 172.63322 28779 ft 401 kts 244°
2026-05-04 02:04 7.77032 172.60869 28354 ft 398 kts 244°
2026-05-04 02:05 7.75756 172.58400 27925 ft 396 kts 244°
2026-05-04 02:05 7.74487 172.55944 27483 ft 394 kts 244°
2026-05-04 02:05 7.73226 172.53504 27062 ft 391 kts 243°
2026-05-04 02:05 7.71972 172.51078 26643 ft 389 kts 243°
2026-05-04 02:06 7.70725 172.48667 26227 ft 387 kts 243°
2026-05-04 02:06 7.69491 172.46279 25826 ft 385 kts 243°
2026-05-04 02:06 7.68256 172.43891 25412 ft 383 kts 243°
2026-05-04 02:06 7.67031 172.41522 25001 ft 381 kts 243°
2026-05-04 02:07 7.65810 172.39162 24610 ft 378 kts 243°
2026-05-04 02:07 7.64596 172.36816 24213 ft 376 kts 243°
2026-05-04 02:07 7.63390 172.34487 23822 ft 374 kts 243°
2026-05-04 02:07 7.62191 172.32169 23427 ft 372 kts 243°
2026-05-04 02:08 7.60997 172.29863 23042 ft 370 kts 243°
2026-05-04 02:08 7.59810 172.27570 22667 ft 368 kts 242°
2026-05-04 02:08 7.58633 172.25298 22274 ft 366 kts 242°
2026-05-04 02:08 7.57460 172.23032 21889 ft 364 kts 242°
2026-05-04 02:09 7.56293 172.20778 21512 ft 362 kts 242°
2026-05-04 02:09 7.55134 172.18540 21135 ft 359 kts 242°
2026-05-04 02:09 7.53982 172.16317 20766 ft 357 kts 242°
2026-05-04 02:09 7.52837 172.14109 20386 ft 355 kts 242°
2026-05-04 02:10 7.51699 172.11913 20028 ft 352 kts 242°
2026-05-04 02:10 7.50567 172.09729 19661 ft 350 kts 242°
2026-05-04 02:10 7.49443 172.07559 19299 ft 348 kts 242°
2026-05-04 02:10 7.48325 172.05403 18937 ft 346 kts 242°
2026-05-04 02:11 7.47217 172.03268 18580 ft 344 kts 242°
2026-05-04 02:11 7.46114 172.01140 18221 ft 342 kts 242°
2026-05-04 02:11 7.45015 171.99021 17872 ft 340 kts 242°
2026-05-04 02:11 7.43924 171.96917 17516 ft 338 kts 242°
2026-05-04 02:12 7.42841 171.94830 17161 ft 336 kts 242°
2026-05-04 02:12 7.41778 171.92780 16815 ft 334 kts 242°
2026-05-04 02:12 7.40693 171.90691 16464 ft 331 kts 242°
2026-05-04 02:12 7.39629 171.88642 16116 ft 329 kts 242°
2026-05-04 02:13 7.38585 171.86629 15751 ft 328 kts 242°
2026-05-04 02:13 7.37531 171.84601 15387 ft 326 kts 242°
2026-05-04 02:13 7.36482 171.82580 15054 ft 324 kts 242°
2026-05-04 02:13 7.35444 171.80581 14705 ft 322 kts 242°
2026-05-04 02:14 7.34409 171.78587 14371 ft 320 kts 242°
2026-05-04 02:14 7.33381 171.76608 14038 ft 318 kts 242°
2026-05-04 02:14 7.32360 171.74644 13702 ft 316 kts 242°
2026-05-04 02:14 7.31347 171.72692 13365 ft 314 kts 243°
2026-05-04 02:15 7.30578 171.70641 12976 ft 314 kts 255°
2026-05-04 02:15 7.29972 171.68540 12649 ft 311 kts 253°
2026-05-04 02:15 7.29337 171.66470 12363 ft 307 kts 252°
2026-05-04 02:15 7.28696 171.64425 12040 ft 305 kts 252°
2026-05-04 02:16 7.28050 171.62398 11715 ft 303 kts 252°
2026-05-04 02:16 7.27404 171.60385 11403 ft 301 kts 252°
2026-05-04 02:16 7.26759 171.58383 11083 ft 300 kts 252°
2026-05-04 02:16 7.26120 171.56404 10771 ft 297 kts 251°
2026-05-04 02:17 7.25482 171.54432 10448 ft 296 kts 251°
2026-05-04 02:17 7.24846 171.52467 10124 ft 294 kts 251°
2026-05-04 02:17 7.24215 171.50516 9860 ft 291 kts 251°
2026-05-04 02:17 7.23585 171.48570 9632 ft 296 kts 251°
2026-05-04 02:18 7.22942 171.46583 9322 ft 301 kts 251°
2026-05-04 02:18 7.22300 171.44601 8967 ft 303 kts 251°
2026-05-04 02:18 7.21647 171.42582 8609 ft 304 kts 251°
2026-05-04 02:18 7.20992 171.40563 8283 ft 303 kts 251°
2026-05-04 02:19 7.20340 171.38548 7939 ft 302 kts 251°
2026-05-04 02:19 7.19689 171.36541 7615 ft 301 kts 251°
2026-05-04 02:19 7.19040 171.34536 7293 ft 301 kts 251°
2026-05-04 02:19 7.18397 171.32552 7001 ft 298 kts 250°
2026-05-04 02:20 7.17752 171.30565 6634 ft 299 kts 251°
2026-05-04 02:20 7.17108 171.28577 6303 ft 298 kts 251°
2026-05-04 02:20 7.16466 171.26597 6040 ft 295 kts 251°
2026-05-04 02:20 7.15830 171.24641 5765 ft 293 kts 251°
2026-05-04 02:21 7.15199 171.22697 5456 ft 292 kts 251°
2026-05-04 02:21 7.14569 171.20756 5151 ft 290 kts 251°
2026-05-04 02:21 7.13944 171.18831 4843 ft 289 kts 251°
2026-05-04 02:21 7.13318 171.16905 4525 ft 289 kts 251°
2026-05-04 02:22 7.12697 171.14986 4201 ft 288 kts 251°
2026-05-04 02:22 7.12077 171.13078 3987 ft 283 kts 251°
2026-05-04 02:22 7.11463 171.11228 3864 ft 274 kts 246°
2026-05-04 02:22 7.10423 171.09720 3806 ft 257 kts 218°
2026-05-04 02:23 7.08945 171.08914 3701 ft 231 kts 189°
2026-05-04 02:23 7.07422 171.08815 3519 ft 211 kts 166°
2026-05-04 02:23 7.06027 171.09061 3371 ft 196 kts 162°
2026-05-04 02:23 7.04735 171.09330 3236 ft 184 kts 160°
2026-05-04 02:24 7.03628 171.09828 3015 ft 168 kts 130°
2026-05-04 02:24 7.03047 171.10773 2863 ft 156 kts 101°
2026-05-04 02:24 7.03012 171.11833 2741 ft 149 kts 81°
2026-05-04 02:24 7.03178 171.12851 2648 ft 145 kts 79°
2026-05-04 02:25 7.03319 171.13830 2673 ft 138 kts 81°
2026-05-04 02:25 7.03479 171.14785 2576 ft 138 kts 78°
2026-05-04 02:25 7.03682 171.15707 2376 ft 136 kts 77°
2026-05-04 02:25 7.03906 171.16633 2192 ft 137 kts 77°
2026-05-04 02:26 7.04136 171.17566 1939 ft 138 kts 77°
2026-05-04 02:26 7.04369 171.18505 1682 ft 139 kts 77°
2026-05-04 02:26 7.04601 171.19450 1472 ft 139 kts 76°
2026-05-04 02:26 7.04846 171.20395 1267 ft 141 kts 76°
2026-05-04 02:27 7.05087 171.21344 985 ft 139 kts 76°
2026-05-04 02:27 7.05319 171.22286 804 ft 139 kts 77°
2026-05-04 02:27 7.05538 171.23239 591 ft 140 kts 76°
2026-05-04 02:27 7.05761 171.24191 408 ft 139 kts 76°
2026-05-04 02:28 7.05987 171.25103 236 ft 134 kts 76°
2026-05-04 02:28 7.06213 171.26012 61 ft 135 kts 77°
2026-05-04 02:28 7.06423 171.26899 3 ft 112 kts 75°
2026-05-04 02:28 7.06570 171.27483 3 ft 73 kts 77°
2026-05-04 02:29 7.06661 171.27858 5 ft 36 kts 76°
2026-05-04 02:29 7.06708 171.28041 4 ft 17 kts 78°
2026-05-04 02:29 7.06742 171.28082 5 ft 6 kts 355°
2026-05-04 02:29 7.06785 171.28076 6 ft 7 kts
2026-05-04 02:30 7.06825 171.28092 9 ft 6 kts 40°
2026-05-04 02:30 7.06849 171.28124 8 ft 7 kts 61°
2026-05-04 02:30 7.06855 171.28165 7 ft 4 kts 110°
2026-05-04 02:30 7.06847 171.28180 7 ft 3 kts 121°
2026-05-04 02:31 7.06842 171.28189 7 ft 2 kts 122°
2026-05-04 02:31 7.06837 171.28195 7 ft 0 kts 123°